Location: Newark
(35.8967°N, 14.4625°E)
Time: 23:17:16
(UTC+00:00)

N. Korean satellite - Pass Details

Date: 23 November 2019
Orbit: 455 x 507 km, 97.2° (Epoch: 14 December)

Event Time Altitude Azimuth Distance (km) Brightness Sun altitude
Rises 16:33:11 0° 183° (S) 2,556 10.5 -8.8°
Reaches altitude 10° 16:35:19 10° 191° (S) 1,687 9.7 -9.2°
Maximum altitude 16:38:46 40° 262° (W) 750 8.2 -9.9°
Drops below altitude 10° 16:42:16 10° 333° (NNW) 1,719 9.5 -10.6°
Sets 16:44:28 0° 341° (NNW) 2,612 10.3 -11.0°
